Regional Weather Roundup
Issued by NWS

Home | Current Version | Previous Version | Graphics & Text | Print | Product List | Glossary On
Versions: 1 2 3 4 5 6 7 8 9 10 11 12 13 14 15 16 17 18 19 20 21 22 23 24 25 26 27 28 29 30 31 32 33 34 35 36 37 38 39 40 41 42 43 44 45 46 47 48 49 50
000
ASUS45 KPSR 211210
RWRAZ

ARIZONA REGIONAL HOURLY WEATHER ROUNDUP
NATIONAL WEATHER SERVICE PHOENIX AZ
500 AM MST TUE OCT 21 2014

NOTE: FAIR INDICATES FEW OR NO CLOUDS BELOW 12,000 FEET WITH NO
SIGNIFICANT WEATHER AND/OR OBSTRUCTIONS TO VISIBILITY.

AZZ001>003-036-211300-
NORTHWEST ARIZONA

CITY           SKY/WX    TMP DP  RH WIND       PRES   REMARKS
BULLHEAD CITY  CLEAR     70  46  43 CALM      29.83S
KINGMAN        PTCLDY    57  42  57 VRB6      29.96S
6HR MIN TEMP:  56; 6HR MAX TEMP:  65;

$$

AZZ004>008-015-016-018-211300-
NORTH CENTRAL ARIZONA

CITY           SKY/WX    TMP DP  RH WIND       PRES   REMARKS
GRAND CANYON   CLEAR     31  28  89 CALM      30.14S
6HR MIN TEMP:  31; 6HR MAX TEMP:  40;

PRESCOTT       CLEAR     47  39  74 S6        30.06S
6HR MIN TEMP:  47; 6HR MAX TEMP:  54;

FLAGSTAFF      CLEAR     34  32  92 CALM      30.16S
6HR MIN TEMP:  34; 6HR MAX TEMP:  40;

PAYSON         CLEAR     54  41  62 CALM      30.10S
$$

AZZ009>014-017-211300-
NORTHEAST ARIZONA

CITY           SKY/WX    TMP DP  RH WIND       PRES   REMARKS
WINSLOW        CLEAR     47  42  83 E8        30.08S
6HR MIN TEMP:  47; 6HR MAX TEMP:  54;

SAINT JOHNS    CLEAR     41  40  96 W3        30.11S
6HR MIN TEMP:  41; 6HR MAX TEMP:  51;

SHOW LOW       CLEAR     45  36  70 S9        30.15S
$$

AZZ023-211300-
GREATER PHOENIX AREA

CITY           SKY/WX    TMP DP  RH WIND       PRES   REMARKS
PHOENIX        CLEAR     72  50  45 E8        29.84R
6HR MIN TEMP:  70; 6HR MAX TEMP:  78;

BUCKEYE          N/A     61  46  59 N5        29.85S
LUKE AFB       CLEAR     64  51  62 N6        29.85R
6HR MIN TEMP:  64; 6HR MAX TEMP:  69;

DEER VALLEY    CLEAR     69  48  47 CALM      29.86S
6HR MIN TEMP:  67; 6HR MAX TEMP:  74;

SCOTTSDALE     CLEAR     75  48  38 E5        29.88R
6HR MIN TEMP:  69; 6HR MAX TEMP:  77;

MESA-GATEWAY   CLEAR     64  52  63 SE6       29.88S
$$

AZZ027-028-211300-
SOUTHWEST MARICOPA COUNTY AND PINAL COUNTY

CITY           SKY/WX    TMP DP  RH WIND       PRES   REMARKS
CASA GRANDE    CLEAR     66  48  52 CALM      29.87S
6HR MIN TEMP:  64; 6HR MAX TEMP:  73;

$$

AZZ503-504-507>509-211300-
SOUTHEAST ARIZONA

CITY           SKY/WX    TMP DP  RH WIND       PRES   REMARKS
TUCSON         CLEAR     63  50  62 S12       29.94F
6HR MIN TEMP:  63; 6HR MAX TEMP:  72;

DAVIS-MONTHAN  CLEAR     64  49  60 E9        29.93S
6HR MIN TEMP:  62; 6HR MAX TEMP:  68;

NOGALES        CLEAR     50  50 100 MISG      29.99S
6HR MIN TEMP:  50; 6HR MAX TEMP:  59;

SIERRA VISTA   CLEAR     54  43  66 E3        30.04S
DOUGLAS        CLEAR     48  45  89 N8        30.02S
6HR MIN TEMP:  47; 6HR MAX TEMP:  59;

SAFFORD        CLEAR     57  50  77 SE8       30.01R
6HR MIN TEMP:  56; 6HR MAX TEMP:  64;

$$

AZZ020-021-025-026-031-211300-
SOUTHWEST ARIZONA

CITY           SKY/WX    TMP DP  RH WIND       PRES   REMARKS
YUMA           CLEAR     73  60  63 CALM      29.79R
6HR MIN TEMP:  73; 6HR MAX TEMP:  79;

$$

CAZ031-033-041-043-047-048-061-211300-
SOUTHERN CALIFORNIA

CITY           SKY/WX    TMP DP  RH WIND       PRES   REMARKS
DOWNTOWN L.A.  CLOUDY    67  60  78 CALM      29.89R
6HR MIN TEMP:  67; 6HR MAX TEMP:  68;

L.A. AIRPORT   PTCLDY    65  62  90 CALM      29.89S
6HR MIN TEMP:  64; 6HR MAX TEMP:  67;

SAN DIEGO      CLOUDY    70  59  68 E3        29.90F
6HR MIN TEMP:  69; 6HR MAX TEMP:  70;

BURBANK        CLOUDY    61  59  93 CALM      29.90S FOG
6HR MIN TEMP:  60; 6HR MAX TEMP:  65;

ONTARIO        PTCLDY    61  58  90 CALM      29.90S FOG
6HR MIN TEMP:  59; 6HR MAX TEMP:  65;

RIVERSIDE      MOCLDY    60  58  92 N5        29.91R FOG
6HR MIN TEMP:  58; 6HR MAX TEMP:  65;

PALM SPRINGS   CLEAR     69  55  60 CALM      29.82R
6HR MIN TEMP:  69; 6HR MAX TEMP:  80;

EL CENTRO NAS  CLEAR     69  44  40 CALM      29.77S
6HR MIN TEMP:  68; 6HR MAX TEMP:  79;

IMPERIAL       CLEAR     69  50  50 CALM      29.77S
6HR MIN TEMP:  67; 6HR MAX TEMP:  77;

BLYTHE         CLEAR     68  46  45 N7        29.80R
6HR MIN TEMP:  68; 6HR MAX TEMP:  79;

NEEDLES        CLEAR     71  45  39 CALM      29.82R
6HR MIN TEMP:  71; 6HR MAX TEMP:  80;

$$

NVZ020-UTZ003-211300-
SOUTHERN NEVADA-UTAH

CITY           SKY/WX    TMP DP  RH WIND       PRES   REMARKS
LAS VEGAS      PTCLDY    73  38  27 S18       29.81S
6HR MIN TEMP:  72; 6HR MAX TEMP:  78;

SALT LAKE CITY CLOUDY    64  40  41 S14       29.87S
6HR MIN TEMP:  61; 6HR MAX TEMP:  65;

$$

NMZ009-TXZ055-211300-
NEW MEXICO-WEST TEXAS

CITY           SKY/WX    TMP DP  RH WIND       PRES   REMARKS
ALBUQUERQUE    CLOUDY    53  48  83 N7        30.15S
6HR MIN TEMP:  52; 6HR MAX TEMP:  58;

EL PASO        PTCLDY    58  54  86 N6        30.07R
6HR MIN TEMP:  58; 6HR MAX TEMP:  61;

$$


........................KEY........................
SKY/WX - SKY CONDITION/WEATHER
TMP    - TEMPERATURE IN FAHRENHEIT
DP     - DEW POINT IN FAHRENHEIT
RH     - RELATIVE HUMIDITY IN PERCENT
WIND   - DIRECTION AND SPEED IN MILES PER HOUR (MPH)
VRB    - VARIABLE WIND DIRECTION
PRES   - MEAN SEA LEVEL PRESSURE IN INCHES OF MERCURY
         F - FALLING PRESSURE   R - RISING PRESSURE
         S - STEADY PRESSURE
VSB    - VISIBILITY IN MILES
HX     - HEAT INDEX IN FAHRENHEIT
WCI    - WIND CHILL INDEX IN FAHRENHEIT
TC     - TEMPERATURE IN CELSIUS WHICH IS ALSO KNOWN AS
         TEMPERATURE IN CENTIGRADE
AFB    - AIR FORCE BASE
         LUKE AFB IS LUKE AIR FORCE BASE
         DAVIS-MONTHAN IS DAVIS-MONTHAN AIR FORCE BASE
NAS    - NAVAL AIR STATION
         EL CENTRO NAS IS EL CENTRO NAVAL AIR STATION
N/A    - NOT AVAILABLE


USA.gov is the U.S. government's official web portal to all federal, state and local government web resources and services.